Location: Shepherdstown, WV
(39.4326°N, 77.8042°W)
Time: 05:37:36
(UTC-04:00)

Vanguard 1 - Pass Details

Date: 02 August 2021
Orbit: 652 x 3831 km, 34.3° (Epoch: 24 September)

Event Time Altitude Azimuth Distance (km) Brightness Sun altitude
Rises 16:11:17 0° 273° (W) 3,904 13.8 46.6°
Reaches altitude 10° 16:13:41 10° 265° (W) 3,221 13.7 46.1°
Maximum altitude 16:21:15 39° 199° (SSW) 2,482 13.0 44.7°
Drops below altitude 10° 16:34:19 10° 138° (SE) 5,522 13.8 42.3°
Sets 16:40:02 0° 132° (SE) 7,028 14.2 41.2°
